Regional Weather Roundup
Issued by NWS

Home | Current Version | Previous Version | Text Only | Print | Product List | Glossary On
Versions: 1 2 3 4 5 6 7 8 9 10 11 12 13 14 15 16 17 18 19 20 21 22 23 24 25 26 27 28 29 30 31 32 33 34 35 36 37 38 39 40 41 42 43 44 45 46 47 48 49 50
000
ASUS44 KFWD 091610
RWRTX
NORTH TEXAS HOURLY WEATHER ROUNDUP
NATIONAL WEATHER SERVICE FORT WORTH TX
1000 AM CST TUE FEB 09 2016

NOTE: "FAIR" INDICATES FEW OR NO CLOUDS BELOW 12,000 FEET WITH NO
SIGNIFICANT WEATHER AND/OR OBSTRUCTIONS TO VISIBILITY.

TXZ118-119-091700-
DALLAS/FORT WORTH METROPLEX

CITY           SKY/WX    TMP DP  RH WIND       PRES   REMARKS
DFW AIRPORT    MOSUNNY   50  14  23 W13       30.30S
DALLAS LOVE    MOSUNNY   48  15  26 NW12      30.31S
FTW MEACHAM    SUNNY     50  17  27 W10       30.31F
DAL-EXECUTIVE  SUNNY     47  14  26 W13       30.30S
FTW-ALLIANCE   MOSUNNY   49  17  28 NW15      30.31S
FTW-SPINKS     SUNNY     52  18  25 W9        30.34S
ARLINGTON      SUNNY     50  14  23 W9        30.31F
GRAND PRAIRIE  SUNNY     48  10  21 W9G16     30.33S
ADDISON        SUNNY     48  16  27 NW8G16    30.30R
MESQUITE       SUNNY     48  14  25 W9        30.31R
LANCASTER      SUNNY     47  11  23 W12       30.33S
$$

TXZ091>094-102>105-117-120-121-131>134-091700-
NORTH CENTRAL TEXAS

CITY           SKY/WX    TMP DP  RH WIND       PRES   REMARKS
SHRMAN/DENISON SUNNY     47  18  30 NW9       30.29R
GAINESVILLE    SUNNY     46  18  32 W13       30.32R
BOWIE          SUNNY     47  22  36 W10       30.30S
BRIDGEPORT     SUNNY     49  23  36 W7        30.33S
DECATUR        SUNNY     46  19  33 W12       30.30F
DENTON         SUNNY     48  19  31 NW10      30.31R
MCKINNEY       SUNNY     46  18  32 NW12      30.29S
GREENVILLE     SUNNY     50  16  25 NW14      30.28F
ROCKWALL       SUNNY     48  16  27 N12G20    30.29R
TERRELL        SUNNY     50  16  25 NW13      30.30S
WAXAHACHIE     SUNNY     48  18  31 W10       30.33F
CLEBURNE       SUNNY     48  16  27 W14       30.35S
GRANBURY       SUNNY     54  16  23 W10G17    30.35S
$$

TXZ083>090-098>101-113>116-127>130-139>142-154-155-091700-
WESTERN NORTH TEXAS

CITY           SKY/WX    TMP DP  RH WIND       PRES   REMARKS
WICHITA FALLS  SUNNY     48  25  40 W10       30.30F
WF-KICKAPOO    SUNNY     46  25  44 NW5       30.32S
VERNON         SUNNY     46  24  41 NW7       30.32F
ABILENE        SUNNY     53  25  33 NW13      30.36S
ABILENE-DYESS  SUNNY     55  25  30 NW13      30.35S
BRECKENRIDGE   SUNNY     53  24  32 W9G16     30.34F
GRAHAM         SUNNY     47  25  41 SW5       30.32S
MINERAL WELLS  SUNNY     49  20  31 W6        30.32S
STEPHENVILLE   SUNNY     53  16  23 W13       30.36F
COMANCHE       SUNNY     54  24  31 W8        30.35F
BROWNWOOD      SUNNY     46  23  39 MISG      30.38F
COLEMAN        SUNNY     56  24  28 W12       30.37S
$$

TXZ143>147-156>162-174-175-091700-
CENTRAL TEXAS

CITY           SKY/WX    TMP DP  RH WIND       PRES   REMARKS
WACO           SUNNY     51  16  24 W9        30.36S
WACO-TSTC      SUNNY     50  12  22 NW7       30.36S
WACO-MCGREGOR  SUNNY     52  19  27 NW6       30.36S
HILLSBORO      SUNNY     48  18  29 W10       30.34F
CORSICANA      SUNNY     51  15  23 W13       30.34S
MEXIA          SUNNY     49  13  23 W12       30.34S
HEARNE         SUNNY     49  17  28 NW7       30.39R
CAMERON        SUNNY     50  20  30 NW5       30.37F
TEMPLE         SUNNY     52  18  26 W8        30.37R
KILLEEN        SUNNY     53  16  23 NW14      30.35S
KILLEEN-SKYLRK SUNNY     54  16  22 NW9       30.36S
FORT HOOD      SUNNY     53  15  22 W8        30.34S
GATESVILLE     SUNNY     55  18  22 NW10      30.37F
HAMILTON       SUNNY     55  19  25 W15       30.35F
LAMPASAS       SUNNY     52  20  28 W9        30.36S
$$

TXZ095>097-106>112-122>126-135>138-148>153-164>167-091700-
EAST TEXAS

CITY           SKY/WX    TMP DP  RH WIND       PRES   REMARKS
PARIS          SUNNY     45  18  33 NW17G25   30.25R WCI  37
SULPHUR SPRNGS SUNNY     46  18  32 NW10      30.29F
MOUNT PLEASANT SUNNY     46  16  30 NW18      30.27F WCI  38
GILMER         SUNNY     46  16  30 W12G18    30.27S WCI  40
MINEOLA        SUNNY     46  19  34 W10G16    30.29S
TYLER          SUNNY     48  15  26 NW12      30.28S
LONGVIEW       SUNNY     47  16  29 NW12      30.26F
MARSHALL       SUNNY     45  14  29 NW8       30.28S
ATHENS         SUNNY     46  19  34 NW5       30.30S
PALESTINE      SUNNY     47  19  33 W9        30.33S
JACKSONVILLE   SUNNY     47  15  28 NW10      30.30S
HENDERSON      SUNNY     47  17  30 NW12      30.29S
CENTER         FAIR      48  15  26 W12G20    30.28R
NACOGDOCHES    SUNNY     48  18  29 NW16G23   30.30S
LUFKIN         SUNNY     48  17  29 NW8       30.32S
$$

SUPPLEMENTAL OBSERVATIONS (CENTRAL)

CITY           SKY/WX    TMP DP  RH WIND       PRES   REMARKS
CADDO GRASSLND   N/A     48  18  29 NW7G15      N/A
PAT MAYSE LAKE   N/A     45  18  33 W13         N/A  WCI  38
GREENVILLE       N/A     48  19  32 NW12        N/A
CEDAR HILL       N/A     52  18  25 NW6         N/A
MCGREGOR         N/A     55  19  24 NW5         N/A
TEMPLE           N/A     55  14  19 NW5         N/A
$$

SUPPLEMENTAL OBSERVATIONS (WEST)

CITY           SKY/WX    TMP DP  RH WIND       PRES   REMARKS
MILLERS CREEK    N/A     54  30  40 NW12        N/A
POSSUM KINGDOM   N/A     48  25  40 W9          N/A
LBJ GRASSLAND    N/A     50  19  29 W8          N/A
GRANBURY         N/A     54  14  20 NW13        N/A
HAMBY            N/A     54  28  37 NW15        N/A
IVIE RESERVOIR   N/A     52  19  28 W12         N/A
COLORADO BEND    N/A     52  25  35 N3          N/A
$$

SUPPLEMENTAL OBSERVATIONS (EAST)

CITY           SKY/WX    TMP DP  RH WIND       PRES   REMARKS
CLARKSVILLE      N/A     46  18  31 NW16        N/A  WCI  40
TEXARKANA        N/A     46  18  31 NW12G20     N/A
LINDEN           N/A     46  18  31 NW12G23     N/A
GILMER           N/A     48  16  27 NW10        N/A
HENDERSON        N/A     48  16  27 NW16        N/A
LUFKIN           N/A     48  18  29 MISG        N/A
N SABINE NF      N/A     45  19  36 MISG        N/A
S SABINE NF      N/A     48  18  29 W7          N/A
$$

SUPPLEMENTAL OBSERVATIONS ARE A COLLECTION OF AUTOMATED INSTRUMENTS
THAT ARE MAINTAINED BY A VARIETY OF FEDERAL AND STATE AGENCIES.
CERTAIN ELEMENTS...SUCH AS HUMIDITY VALUES AND SUSTAINED WIND
SPEEDS...MAY BE APPROXIMATED.




USA.gov is the U.S. government's official web portal to all federal, state and local government web resources and services.